Wind_Speed
1 1 2 2 1 1 1 1 1 2 2 2 2 3 3 3 3 3 3 2 2 1 1 0 1 1 2 2 2 3 3 3 3 3 3 3 3 4 4 4 5 4 4 4 5 5 6 6 7
1 1 1 1 1 1 0 1 1 1 1 1 2 2 2 2 2 3 3 3 2 1 1 1 2 2 3 3 3 3 4 4 4 4 4 4 4 5 6 6 6 5 5 5 5 6 7 7 7
1 1 1 1 1 1 1 1 1 1 1 1 2 2 2 2 2 3 3 3 3 2 2 2 3 3 4 4 4 4 4 5 5 5 4 5 5 6 6 6 6 6 6 7 7 7 7 8 8
1 1 2 2 2 2 2 2 1 2 2 2 3 3 3 3 3 3 4 3 3 3 3 3 3 4 4 4 4 4 5 5 6 5 5 6 6 6 7 7 7 7 7 7 8 8 8 8 8
2 2 2 2 3 3 3 3 2 2 2 3 3 4 4 4 4 4 4 3 4 4 4 4 4 4 5 5 5 5 5 5 6 6 6 7 7 7 7 7 7 7 7 8 9 9 9 9 9
2 2 2 3 4 3 4 4 4 4 4 4 4 4 5 5 5 5 4 4 4 5 5 5 5 5 6 6 5 6 6 6 6 6 6 6 6 7 7 7 8 8 8 8 9 9 9 10 10
3 2 3 3 4 3 4 4 4 5 5 5 5 5 5 5 5 5 5 5 6 6 6 7 6 6 6 6 7 7 7 7 7 7 7 7 7 7 8 8 8 8 9 9 9 9 9 10 10
3 3 3 3 4 4 5 5 5 5 5 6 6 6 5 6 6 6 6 6 6 7 7 7 7 7 7 7 8 8 8 8 8 8 8 8 8 9 9 9 9 9 9 9 9 9 9 9 10
4 3 4 4 4 4 5 5 5 6 6 6 6 6 6 6 7 7 7 7 7 7 7 7 7 7 8 8 9 9 9 9 9 9 10 10 9 9 10 10 10 10 11 10 10 10 10 9 10
4 4 4 4 4 4 4 5 5 6 6 6 6 6 6 7 7 7 7 6 7 7 7 7 8 8 8 9 9 9 9 10 10 10 10 11 10 11 11 11 12 12 12 11 11 11 11 11 11
5 4 4 4 4 4 4 4 5 5 5 5 6 6 6 7 7 7 7 6 6 7 7 8 8 8 8 9 9 9 10 10 10 11 11 11 11 12 12 12 12 12 12 12 12 12 12 12 12
5 5 5 5 4 4 4 4 4 4 5 5 5 6 6 6 6 6 7 7 7 7 8 9 9 9 10 9 9 10 10 11 11 11 11 12 12 12 12 12 12 12 12 12 13 13 13 13 13
5 5 5 5 5 4 4 4 4 4 4 4 5 5 6 7 7 7 7 7 8 8 8 9 10 10 10 11 11 11 12 12 12 12 12 12 12 12 12 13 13 13 13 13 13 14 14 14 15
6 6 6 5 5 5 5 5 4 4 4 5 5 5 6 7 7 7 8 8 8 8 9 9 9 10 10 10 11 12 12 12 12 12 12 12 12 12 13 13 13 13 13 13 13 13 13 14 14
7 7 6 6 6 6 5 5 5 5 5 6 6 6 7 7 8 8 8 8 8 9 9 9 9 10 10 11 11 11 12 12 11 12 12 12 13 13 13 13 13 12 13 13 12 12 12 12 13
7 7 7 7 7 6 6 6 6 6 6 6 6 7 7 8 8 8 9 9 9 10 10 10 10 10 11 11 11 12 12 12 12 12 12 12 13 13 13 13 13 13 12 12 12 12 11 11 12
8 7 7 7 7 7 7 7 7 7 7 7 7 7 8 9 9 9 10 10 11 11 11 11 11 11 12 12 12 12 13 13 13 13 13 13 13 13 13 13 13 13 13 13 12 12 11 11 12
8 8 8 8 7 8 8 8 8 8 8 8 8 9 9 9 10 10 10 11 11 12 12 12 12 12 12 12 12 13 13 14 14 14 14 13 13 13 13 13 13 13 13 12 12 12 12 12 12
9 8 8 9 9 8 8 9 9 8 9 9 9 10 10 11 11 11 11 11 12 12 12 13 13 13 13 13 14 14 14 14 14 14 14 14 14 14 13 13 13 13 12 12 12 12 12 12 12
9 9 9 9 9 9 10 10 10 9 10 10 10 11 11 12 12 12 12 12 13 13 13 13 13 13 13 14 14 14 14 14 15 15 15 15 14 14 13 13 13 13 13 12 12 12 13 13 13
9 9 10 10 10 10 10 11 11 11 11 11 12 12 12 12 13 13 13 13 14 14 14 14 14 14 14 15 15 15 15 15 15 15 15 15 15 14 14 14 14 14 14 14 14 14 13 14 14
10 10 10 10 10 11 11 11 11 11 11 12 12 12 13 13 13 13 13 14 14 14 14 15 15 16 15 15 16 16 16 16 16 16 16 16 15 15 15 14 14 14 14 15 15 14 14 15 15
11 10 10 10 11 12 12 12 12 12 12 12 13 13 13 13 14 15 15 15 15 15 15 16 16 17 16 16 17 17 17 17 17 17 17 16 15 15 15 15 15 15 15 15 15 14 15 15 15
10 10 10 11 11 12 12 13 13 13 13 13 13 13 14 14 15 16 16 16 16 16 16 17 17 18 18 18 18 18 18 17 17 17 17 17 17 17 16 16 16 16 16 16 16 15 15 15 16
11 11 11 11 12 12 12 13 13 13 13 13 14 14 15 15 16 16 17 17 17 17 17 17 18 18 18 19 19 19 19 19 18 18 18 18 18 18 17 17 17 17 17 17 17 16 17 17 16
12 12 12 12 12 12 12 13 13 13 13 14 14 15 16 16 17 17 17 17 17 18 18 19 19 19 19 19 20 20 20 20 21 21 20 19 19 19 19 19 19 18 17 17 17 17 18 18 17
13 13 13 13 14 14 14 13 13 14 14 15 15 16 16 16 17 17 18 18 18 19 19 20 20 19 19 19 20 20 21 21 22 22 21 20 20 20 19 19 19 18 18 18 18 18 18 18 18
14 14 14 14 15 15 14 14 14 14 15 16 16 17 17 17 17 17 18 18 19 19 20 20 20 20 20 20 20 20 21 21 21 21 21 21 21 20 20 19 20 20 19 19 19 19 19 19 19
15 15 16 16 16 16 16 15 15 16 16 17 17 18 18 18 19 19 19 19 20 20 21 21 20 21 21 21 21 21 21 22 21 21 21 21 21 20 20 20 20 21 20 20 20 20 21 20 20
16 16 17 17 18 18 18 18 17 17 18 18 18 18 19 19 20 20 21 21 20 21 21 21 21 21 21 21 22 22 23 22 22 22 22 22 22 21 21 21 21 22 22 21 22 22 21 21 21
Wind_Direction
61 62 55 53 31 23 45 66 110 152 150 150 146 151 148 142 158 167 166 160 156 152 145 10 335 323 323 314 319 305 291 301 312 313 304 299 292 289 282 285 288 286 287 286 280 271 269 267 272
49 44 31 41 24 5 338 92 90 160 179 177 170 159 159 158 168 175 187 190 199 210 229 271 284 306 308 311 313 304 300 300 303 303 303 301 293 284 279 284 282 282 281 281 279 274 271 273 274
51 356 356 9 342 312 233 198 187 231 236 229 216 200 191 191 190 195 205 210 218 235 244 263 277 286 288 288 298 302 300 298 296 295 293 292 294 298 293 289 281 276 275 276 274 273 273 274 277
285 298 298 305 303 270 244 239 245 246 250 243 228 220 218 226 226 217 217 220 227 241 254 268 273 282 282 282 291 293 292 296 292 289 289 291 294 296 296 292 287 281 276 273 272 271 275 279 280
279 284 293 288 284 265 245 238 241 247 247 248 242 239 236 239 241 236 228 229 237 244 254 262 269 274 278 283 291 296 292 292 288 287 285 287 292 292 295 294 289 283 279 274 272 272 273 276 279
274 279 285 278 279 263 247 242 245 243 245 249 247 249 246 245 249 252 249 245 247 249 255 261 267 269 277 283 290 293 292 293 294 292 290 289 292 293 294 294 292 287 283 281 279 277 274 274 278
269 272 270 271 272 257 248 245 248 247 249 251 252 253 251 249 251 253 256 251 254 259 264 264 266 271 276 280 286 289 287 288 292 295 295 295 294 295 298 295 291 288 285 282 279 277 276 277 278
264 267 267 265 265 258 255 255 255 253 254 256 259 259 253 251 255 256 257 260 261 263 263 265 265 269 274 278 281 287 287 287 288 290 291 293 294 294 296 296 291 289 289 286 282 280 279 279 280
263 267 269 267 265 261 262 261 260 257 258 260 262 263 262 260 261 260 261 263 265 266 262 265 268 274 279 280 283 284 288 291 292 294 290 289 291 289 289 290 293 291 289 286 284 282 279 280 281
258 257 262 264 261 264 263 261 259 260 263 266 266 265 265 267 266 264 262 264 268 270 267 270 275 276 284 284 286 288 290 293 295 294 294 290 289 288 289 291 293 291 288 284 282 282 281 280 279
257 258 259 262 263 262 262 260 258 260 264 267 268 268 267 269 270 266 262 264 271 272 268 268 270 277 284 287 286 290 292 294 295 293 295 292 289 288 290 291 291 291 288 284 282 281 280 278 277
258 263 262 259 261 260 259 261 260 261 264 267 268 269 269 272 272 270 269 268 273 276 273 270 269 275 277 282 284 287 291 294 295 295 293 291 290 290 290 289 290 290 289 286 282 281 279 277 277
256 256 255 253 257 260 263 268 271 270 266 265 270 273 273 274 271 271 271 273 275 276 275 275 275 278 282 284 285 285 289 291 293 294 294 295 295 293 292 289 289 290 289 287 286 284 280 278 277
254 250 252 253 258 261 267 270 272 271 266 270 275 274 276 276 273 272 273 273 273 275 275 278 280 281 283 286 288 290 291 291 292 295 298 299 299 297 296 291 289 289 288 288 287 286 285 281 276
254 256 255 256 258 258 263 265 269 268 264 271 277 277 278 278 276 274 275 275 273 274 276 279 281 282 282 285 290 291 292 293 294 296 298 300 301 300 297 293 290 289 290 289 287 286 287 284 280
256 253 253 254 257 257 260 263 266 266 267 273 277 276 277 278 276 274 274 274 273 274 276 280 281 285 286 287 289 292 295 296 296 296 298 299 299 300 299 295 290 287 288 288 287 284 288 290 284
258 257 255 254 254 257 258 259 262 265 271 276 277 277 276 276 276 275 275 275 275 276 279 282 285 286 288 289 291 294 297 297 296 296 297 295 293 295 298 297 294 289 287 288 289 287 289 288 286
262 260 254 254 255 258 263 265 267 268 272 275 277 277 277 277 277 278 278 278 278 278 281 283 285 289 289 290 290 293 296 297 296 296 295 293 292 293 293 295 293 289 288 290 289 287 287 286 286
259 256 253 255 258 261 266 269 272 276 276 275 277 278 279 277 278 279 279 281 281 281 282 283 286 287 288 290 291 292 294 296 296 295 295 293 291 290 290 290 290 289 289 289 290 290 288 284 285
256 251 255 258 258 261 265 271 276 277 277 277 276 277 280 279 277 278 280 282 283 282 282 282 284 286 286 288 290 292 293 293 294 292 292 292 289 288 288 288 288 287 286 285 286 286 284 282 283
250 251 256 259 260 262 266 270 275 278 278 280 279 277 278 278 280 281 282 283 284 284 283 280 282 285 287 288 290 291 290 292 293 293 291 291 290 289 288 287 283 281 282 284 285 284 282 281 281
252 253 256 259 262 265 268 271 274 276 278 281 282 281 280 280 281 282 283 285 285 284 283 281 283 285 286 288 289 287 289 292 293 293 292 290 291 290 288 284 280 280 280 281 282 282 281 281 280
252 255 257 260 263 267 270 270 273 276 278 281 282 282 281 281 281 281 283 286 286 285 283 281 282 284 285 287 288 288 289 291 293 293 292 291 290 290 288 284 281 281 281 281 280 279 279 279 279
259 259 262 264 265 266 270 271 273 274 277 280 282 283 282 281 280 281 284 286 287 287 286 283 282 283 284 286 287 288 288 289 290 291 291 289 289 288 288 287 284 282 280 279 278 278 276 276 278
258 259 264 266 266 268 270 271 273 275 276 279 283 283 283 283 282 282 284 286 286 287 287 285 284 284 285 285 286 286 286 286 287 287 288 287 285 284 286 286 284 281 279 277 276 275 274 275 275
258 258 260 264 268 272 272 275 276 276 277 279 282 284 286 286 286 285 285 285 286 285 286 285 285 286 286 285 284 284 285 284 284 284 284 284 282 282 282 283 282 281 280 278 277 273 273 273 272
258 258 260 264 268 272 275 278 278 279 279 281 282 284 288 289 288 287 286 287 287 286 286 287 287 288 288 288 288 286 286 286 286 283 281 281 280 281 280 280 279 280 280 278 276 273 272 270 269
258 259 261 264 270 274 275 279 282 283 283 284 284 285 287 288 289 288 287 288 289 289 288 288 289 289 289 289 290 290 289 289 288 286 284 281 279 279 278 277 277 279 279 279 275 272 271 269 267
260 260 262 266 270 274 278 279 281 283 283 283 285 284 283 284 286 288 287 288 290 290 289 288 288 288 288 289 289 290 291 290 289 286 285 284 281 278 275 276 277 278 277 276 274 272 270 269 268
260 262 264 266 270 274 278 281 281 283 284 284 286 286 283 283 285 287 288 288 289 290 290 289 289 289 288 288 288 290 291 292 290 286 284 284 282 280 278 278 278 278 276 275 273 271 270 269 268
Height
5895 5895 5896 5897 5897 5897 5896 5897 5896 5896 5896 5896 5896 5896 5896 5896 5897 5899 5896 5894 5894 5894 5893 5892 5892 5892 5891 5890 5890 5889 5889 5888 5887 5886 5885 5885 5884 5884 5883 5883 5882 5882 5881 5880 5880 5879 5879 5878 5878
5895 5895 5897 5897 5897 5896 5897 5896 5896 5896 5896 5896 5896 5896 5896 5895 5895 5895 5894 5894 5894 5893 5893 5892 5892 5891 5891 5890 5890 5889 5888 5887 5887 5886 5885 5884 5883 5883 5882 5882 5881 5880 5880 5879 5879 5878 5878 5877 5876
5895 5896 5897 5896 5896 5896 5896 5896 5895 5895 5895 5895 5896 5896 5896 5895 5895 5894 5894 5893 5893 5893 5892 5892 5891 5891 5890 5890 5889 5888 5888 5887 5886 5885 5884 5883 5882 5882 5881 5881 5880 5879 5879 5878 5877 5877 5876 5876 5875
5895 5896 5897 5896 5895 5895 5895 5895 5895 5894 5894 5894 5895 5895 5894 5894 5894 5893 5893 5893 5892 5892 5891 5891 5891 5890 5890 5889 5888 5887 5887 5886 5885 5884 5883 5883 5882 5881 5880 5879 5878 5878 5877 5876 5876 5875 5875 5874 5873
5895 5895 5895 5895 5894 5894 5894 5894 5894 5894 5894 5894 5894 5894 5893 5893 5893 5892 5892 5892 5891 5891 5891 5890 5890 5889 5889 5888 5887 5887 5886 5885 5884 5883 5882 5882 5881 5879 5879 5878 5877 5876 5876 5875 5874 5874 5873 5872 5871
5895 5895 5895 5894 5894 5894 5893 5893 5893 5893 5893 5893 5893 5893 5892 5892 5892 5891 5891 5891 5890 5890 5890 5889 5889 5888 5888 5887 5886 5886 5885 5884 5883 5882 5881 5880 5879 5878 5877 5876 5875 5875 5874 5873 5872 5872 5871 5870 5869
5894 5894 5893 5893 5893 5893 5893 5892 5892 5892 5892 5892 5892 5892 5891 5891 5890 5890 5890 5889 5889 5889 5888 5888 5888 5887 5887 5886 5885 5885 5884 5883 5882 5881 5880 5879 5878 5877 5876 5875 5874 5873 5872 5871 5871 5870 5869 5868 5868
5892 5893 5892 5892 5892 5892 5891 5891 5891 5891 5891 5891 5890 5890 5890 5890 5889 5889 5888 5888 5888 5887 5887 5887 5886 5886 5885 5885 5884 5883 5882 5881 5880 5880 5878 5877 5876 5875 5874 5873 5872 5871 5870 5869 5869 5868 5867 5866 5866
5891 5893 5891 5891 5891 5890 5890 5890 5890 5889 5889 5889 5889 5889 5888 5888 5888 5888 5887 5887 5886 5886 5886 5885 5885 5884 5883 5883 5882 5882 5881 5880 5879 5878 5877 5876 5875 5873 5872 5871 5870 5869 5868 5868 5867 5866 5865 5864 5864
5890 5890 5890 5890 5889 5889 5889 5889 5888 5888 5888 5888 5887 5887 5887 5887 5887 5886 5886 5886 5885 5885 5884 5884 5883 5883 5882 5881 5881 5880 5879 5878 5877 5876 5875 5873 5872 5871 5870 5869 5868 5867 5866 5865 5865 5864 5863 5862 5862
5888 5888 5888 5888 5888 5888 5888 5887 5887 5887 5887 5886 5886 5886 5885 5885 5885 5885 5885 5884 5884 5883 5883 5882 5882 5881 5880 5880 5879 5878 5877 5876 5875 5874 5873 5871 5870 5869 5868 5867 5866 5865 5864 5863 5862 5861 5861 5860 5859
5887 5887 5887 5887 5886 5887 5886 5886 5886 5886 5886 5885 5884 5884 5884 5884 5883 5883 5883 5883 5882 5882 5881 5881 5880 5879 5879 5878 5877 5876 5875 5874 5873 5872 5870 5869 5868 5867 5866 5865 5864 5863 5861 5860 5859 5858 5858 5857 5856
5885 5885 5885 5885 5885 5885 5885 5885 5885 5884 5884 5883 5883 5883 5882 5882 5882 5882 5881 5881 5880 5880 5879 5879 5878 5877 5877 5876 5875 5874 5873 5872 5871 5869 5868 5867 5866 5864 5863 5862 5861 5860 5859 5857 5856 5855 5854 5854 5853
5883 5883 5884 5884 5884 5883 5884 5883 5884 5883 5883 5882 5882 5882 5881 5881 5880 5880 5880 5879 5879 5878 5877 5877 5876 5875 5874 5874 5873 5872 5870 5869 5868 5867 5865 5864 5863 5862 5861 5859 5858 5857 5856 5855 5854 5853 5851 5851 5850
5881 5882 5882 5882 5882 5882 5883 5883 5882 5882 5881 5881 5881 5880 5880 5879 5879 5878 5878 5877 5877 5876 5875 5875 5874 5873 5872 5871 5870 5869 5868 5867 5865 5864 5863 5861 5860 5859 5857 5856 5855 5854 5853 5852 5851 5850 5849 5848 5847
5880 5880 5881 5881 5880 5881 5882 5881 5881 5880 5880 5880 5879 5879 5878 5878 5877 5876 5876 5875 5875 5874 5873 5873 5872 5871 5870 5869 5868 5867 5865 5864 5863 5862 5860 5859 5857 5856 5855 5853 5852 5851 5850 5849 5848 5847 5846 5845 5844
5878 5878 5879 5879 5879 5879 5879 5879 5879 5878 5878 5878 5877 5877 5876 5876 5875 5875 5874 5873 5873 5872 5871 5870 5869 5869 5868 5866 5865 5864 5863 5862 5860 5859 5857 5856 5855 5853 5852 5851 5849 5848 5847 5846 5845 5844 5844 5842 5842
5876 5877 5877 5877 5877 5877 5877 5877 5877 5876 5876 5876 5875 5875 5875 5874 5873 5873 5872 5871 5870 5870 5869 5868 5867 5866 5865 5864 5863 5861 5860 5859 5857 5856 5855 5853 5852 5850 5849 5848 5847 5846 5845 5844 5843 5842 5841 5840 5839
5874 5874 5875 5875 5875 5875 5875 5875 5875 5874 5874 5873 5873 5873 5872 5872 5871 5870 5870 5869 5868 5867 5866 5865 5864 5863 5863 5861 5860 5859 5857 5856 5855 5853 5851 5850 5848 5847 5846 5845 5844 5843 5842 5841 5840 5839 5838 5837 5836
5871 5872 5872 5873 5873 5873 5873 5873 5872 5872 5872 5871 5871 5870 5870 5869 5868 5868 5867 5866 5865 5864 5863 5862 5861 5860 5859 5858 5857 5856 5854 5853 5852 5850 5848 5847 5845 5844 5843 5841 5841 5839 5839 5838 5837 5836 5835 5834 5833
5869 5870 5870 5870 5870 5870 5871 5871 5870 5870 5869 5868 5868 5867 5867 5866 5865 5865 5864 5863 5862 5861 5860 5859 5858 5857 5856 5855 5854 5852 5851 5850 5848 5847 5845 5843 5842 5840 5839 5838 5837 5836 5836 5835 5834 5833 5832 5832 5831
5866 5867 5867 5867 5868 5868 5869 5868 5868 5867 5866 5866 5865 5864 5864 5863 5862 5862 5861 5860 5859 5858 5857 5855 5854 5853 5852 5851 5850 5849 5847 5846 5844 5843 5841 5839 5838 5837 5835 5834 5833 5832 5832 5831 5830 5829 5829 5828 5827
5863 5864 5864 5864 5865 5865 5865 5865 5865 5864 5863 5863 5862 5861 5860 5860 5859 5858 5857 5856 5855 5854 5853 5852 5850 5849 5848 5847 5846 5845 5843 5842 5840 5838 5837 5835 5834 5833 5831 5830 5829 5829 5828 5827 5826 5826 5825 5824 5824
5860 5861 5861 5861 5862 5862 5862 5862 5862 5861 5860 5860 5859 5858 5857 5856 5855 5854 5853 5852 5851 5850 5848 5847 5846 5845 5844 5843 5841 5840 5839 5837 5836 5834 5833 5831 5830 5828 5827 5826 5825 5824 5824 5823 5822 5822 5821 5820 5820
5857 5859 5859 5859 5859 5859 5859 5858 5859 5857 5856 5856 5855 5854 5853 5852 5851 5850 5849 5848 5847 5845 5844 5843 5841 5840 5839 5838 5837 5835 5834 5833 5831 5830 5828 5827 5826 5824 5823 5822 5821 5820 5819 5818 5818 5817 5817 5816 5815
5854 5855 5857 5857 5856 5856 5855 5855 5855 5854 5853 5852 5851 5850 5849 5848 5847 5846 5845 5844 5842 5841 5839 5838 5837 5835 5834 5833 5831 5830 5829 5827 5826 5824 5823 5822 5821 5820 5819 5817 5816 5815 5814 5814 5813 5812 5812 5811 5811
5850 5851 5852 5853 5852 5852 5852 5852 5851 5850 5849 5848 5847 5846 5845 5844 5842 5841 5840 5839 5838 5836 5835 5833 5832 5830 5829 5827 5826 5824 5823 5822 5820 5819 5817 5817 5816 5814 5814 5813 5811 5810 5809 5809 5808 5807 5807 5806 5806
5847 5847 5848 5848 5848 5848 5848 5848 5848 5846 5845 5843 5842 5841 5840 5839 5838 5837 5835 5834 5833 5831 5830 5828 5826 5825 5823 5822 5820 5819 5817 5816 5814 5813 5812 5811 5810 5809 5808 5807 5806 5805 5804 5803 5802 5802 5801 5801 5801
5843 5843 5843 5844 5844 5844 5844 5845 5843 5841 5840 5839 5838 5837 5835 5834 5833 5832 5830 5829 5827 5826 5824 5823 5821 5819 5818 5816 5815 5813 5812 5810 5808 5807 5806 5805 5804 5803 5802 5801 5800 5799 5798 5797 5797 5796 5796 5795 5795
5838 5838 5839 5840 5839 5839 5839 5842 5837 5836 5835 5834 5833 5832 5830 5829 5828 5826 5825 5823 5822 5820 5818 5817 5815 5814 5812 5811 5809 5808 5806 5804 5802 5801 5799 5798 5798 5797 5796 5795 5794 5793 5792 5791 5790 5790 5789 5789 5789